• In Lithuania
  • List of Countries
  • For 7 days
  • Water Temperature
  • Satellite Maps
  • Weather Map
  • Weather Widgets
  • user-avatar
    Login

    Hourly Weather Kowalskie

    Today, 22 July, Sunday

    Time Temperature Precipitation Wind Pressure Humidity
    00:00 +19°C° 0 mm 1 mps 738 mmHg 76%
    01:00 +19°C° 0 mm 1 mps 738 mmHg 79%
    02:00 +18°C° 0 mm 1 mps 738 mmHg 80%
    03:00 +18°C° 0 mm 1 mps 738 mmHg 81%
    04:00 +18°C° 0 mm 1 mps 738 mmHg 82%
    05:00 +19°C° 0 mm 1 mps 738 mmHg 79%
    06:00 +20°C° 0 mm 1 mps 738 mmHg 75%
    07:00 +20°C° 0 mm 2 mps 738 mmHg 72%
    08:00 +23°C° 0 mm 2 mps 738 mmHg 66%
    09:00 +24°C° 0 mm 3 mps 738 mmHg 61%
    10:00 +26°C° 0 mm 3 mps 738 mmHg 56%
    11:00 +26°C° 0 mm 3 mps 738 mmHg 54%
    12:00 +27°C° 0 mm 3 mps 738 mmHg 51%
    13:00 +28°C° 0 mm 3 mps 738 mmHg 48%
    14:00 +28°C° 0 mm 3 mps 738 mmHg 48%
    15:00 +28°C° 0 mm 3 mps 738 mmHg 49%
    16:00 +27°C° 0 mm 3 mps 738 mmHg 49%
    17:00 +26°C° 0 mm 3 mps 738 mmHg 55%
    18:00 +25°C° 0 mm 3 mps 738 mmHg 62%
    19:00 +24°C° 0 mm 2 mps 738 mmHg 68%
    20:00 +21°C° 0 mm 2 mps 739 mmHg 71%
    21:00 +20°C° 0 mm 2 mps 739 mmHg 75%
    22:00 +19°C° 0 mm 2 mps 739 mmHg 78%
    23:00 +19°C° 0 mm 2 mps 739 mmHg 79%

    Tomorrow, 23 July, Monday

    Time Temperature Precipitation Wind Pressure Humidity
    00:00 +18°C° 0 mm 2 mps 739 mmHg 80%
    01:00 +18°C° 0 mm 2 mps 739 mmHg 81%
    02:00 +18°C° 0 mm 2 mps 739 mmHg 82%
    03:00 +18°C° 0 mm 2 mps 740 mmHg 82%
    04:00 +17°C° 0 mm 2 mps 740 mmHg 82%
    05:00 +18°C° 0 mm 2 mps 740 mmHg 80%
    06:00 +19°C° 0 mm 3 mps 740 mmHg 78%
    07:00 +20°C° 0 mm 3 mps 740 mmHg 75%
    08:00 +22°C° 0 mm 3 mps 740 mmHg 70%
    09:00 +24°C° 0 mm 3 mps 741 mmHg 65%
    10:00 +26°C° 0 mm 3 mps 741 mmHg 60%
    11:00 +27°C° 0 mm 4 mps 741 mmHg 57%
    12:00 +27°C° 0 mm 4 mps 740 mmHg 54%
    13:00 +28°C° 0 mm 4 mps 740 mmHg 50%
    14:00 +28°C° 0 mm 4 mps 740 mmHg 51%
    15:00 +28°C° 0 mm 4 mps 740 mmHg 51%
    16:00 +28°C° 0 mm 4 mps 740 mmHg 52%
    17:00 +27°C° 0.1 mm 4 mps 740 mmHg 58%
    18:00 +26°C° 0.1 mm 3 mps 740 mmHg 64%
    19:00 +24°C° 0.1 mm 2 mps 740 mmHg 69%
    20:00 +23°C° 0 mm 2 mps 741 mmHg 71%
    21:00 +21°C° 0 mm 2 mps 741 mmHg 73%
    22:00 +21°C° 0 mm 1 mps 742 mmHg 75%
    23:00 +20°C° 0 mm 1 mps 741 mmHg 77%

    Day after tomorrow, 24 July, Tuesday

    Time Temperature Precipitation Wind Pressure Humidity
    00:00 +20°C° 0 mm 1 mps 741 mmHg 80%
    01:00 +18°C° 0 mm 2 mps 741 mmHg 82%
    02:00 +18°C° 0 mm 2 mps 741 mmHg 85%
    03:00 +17°C° 0 mm 2 mps 741 mmHg 87%
    04:00 +17°C° 0 mm 2 mps 741 mmHg 90%
    05:00 +18°C° 0 mm 2 mps 742 mmHg 86%
    06:00 +19°C° 0 mm 2 mps 742 mmHg 83%
    07:00 +21°C° 0 mm 2 mps 742 mmHg 79%
    08:00 +22°C° 0 mm 3 mps 742 mmHg 73%
    09:00 +25°C° 0 mm 3 mps 742 mmHg 66%
    10:00 +26°C° 0 mm 3 mps 742 mmHg 60%
    11:00 +27°C° 0.1 mm 3 mps 742 mmHg 57%
    12:00 +27°C° 0.1 mm 3 mps 741 mmHg 55%
    13:00 +28°C° 0.1 mm 3 mps 741 mmHg 52%
    14:00 +28°C° 0 mm 3 mps 741 mmHg 52%
    15:00 +28°C° 0 mm 3 mps 740 mmHg 52%
    16:00 +28°C° 0 mm 3 mps 740 mmHg 51%
    17:00 +27°C° 0 mm 3 mps 740 mmHg 57%
    18:00 +26°C° 0 mm 2 mps 740 mmHg 62%
    19:00 +25°C° 0 mm 2 mps 740 mmHg 68%
    20:00 +23°C° 0 mm 1 mps 740 mmHg 71%
    21:00 +22°C° 0 mm 1 mps 740 mmHg 74%
    22:00 +21°C° 0 mm 1 mps 740 mmHg 77%
    23:00 +20°C° 0 mm 1 mps 740 mmHg 79%

    25 July, Wednesday

    Time Temperature Precipitation Wind Pressure Humidity
    00:00 +20°C° 0 mm 1 mps 740 mmHg 80%
    01:00 +19°C° 0 mm 1 mps 740 mmHg 82%
    02:00 +19°C° 0 mm 1 mps 740 mmHg 84%
    03:00 +19°C° 0 mm 1 mps 740 mmHg 86%
    04:00 +18°C° 0 mm 2 mps 740 mmHg 88%
    05:00 +19°C° 0 mm 2 mps 740 mmHg 85%
    06:00 +20°C° 0 mm 2 mps 740 mmHg 82%
    07:00 +23°C° 0 mm 2 mps 741 mmHg 78%
    08:00 +24°C° 0.9 mm 2 mps 741 mmHg 75%
    09:00 +25°C° 0.9 mm 3 mps 741 mmHg 72%
    10:00 +26°C° 0.9 mm 3 mps 741 mmHg 68%
    11:00 +26°C° 0.4 mm 3 mps 740 mmHg 65%
    12:00 +27°C° 0.4 mm 3 mps 740 mmHg 61%
    13:00 +28°C° 0.4 mm 3 mps 740 mmHg 57%
    14:00 +28°C° 0 mm 3 mps 740 mmHg 56%
    15:00 +28°C° 0 mm 3 mps 740 mmHg 56%
    16:00 +28°C° 0 mm 3 mps 739 mmHg 55%
    17:00 +27°C° 0.1 mm 3 mps 739 mmHg 60%
    18:00 +26°C° 0.1 mm 2 mps 739 mmHg 65%
    19:00 +25°C° 0.1 mm 2 mps 739 mmHg 70%
    20:00 +24°C° 0 mm 1 mps 740 mmHg 72%
    21:00 +22°C° 0 mm 1 mps 740 mmHg 74%
    22:00 +21°C° 0 mm 1 mps 740 mmHg 76%
    23:00 +21°C° 0 mm 1 mps 740 mmHg 78%

    26 July, Thursday

    Time Temperature Precipitation Wind Pressure Humidity
    00:00 +20°C° 0 mm 1 mps 740 mmHg 79%
    01:00 +20°C° 0 mm 1 mps 740 mmHg 81%
    02:00 +19°C° 0 mm 1 mps 740 mmHg 83%
    03:00 +19°C° 0 mm 1 mps 740 mmHg 84%
    04:00 +19°C° 0 mm 1 mps 740 mmHg 86%
    05:00 +20°C° 0 mm 1 mps 740 mmHg 82%
    06:00 +21°C° 0 mm 1 mps 741 mmHg 78%
    07:00 +23°C° 0 mm 1 mps 741 mmHg 74%
    08:00 +24°C° 0 mm 2 mps 741 mmHg 69%
    09:00 +25°C° 0 mm 2 mps 741 mmHg 65%
    10:00 +27°C° 0 mm 3 mps 741 mmHg 60%
    11:00 +27°C° 0.1 mm 3 mps 741 mmHg 56%
    12:00 +28°C° 0.1 mm 3 mps 741 mmHg 53%
    13:00 +29°C° 0.1 mm 3 mps 740 mmHg 49%
    14:00 +29°C° 0 mm 4 mps 740 mmHg 49%
    15:00 +29°C° 0 mm 4 mps 740 mmHg 48%
    16:00 +29°C° 0 mm 4 mps 740 mmHg 48%
    17:00 +28°C° 0 mm 3 mps 740 mmHg 54%
    18:00 +26°C° 0 mm 2 mps 740 mmHg 59%
    19:00 +25°C° 0 mm 2 mps 741 mmHg 65%
    20:00 +24°C° 0 mm 2 mps 741 mmHg 68%
    21:00 +22°C° 0 mm 1 mps 741 mmHg 70%
    22:00 +21°C° 0 mm 1 mps 741 mmHg 73%
    23:00 +21°C° 0 mm 1 mps 741 mmHg 76%

    27 July, Friday

    Time Temperature Precipitation Wind Pressure Humidity
    00:00 +20°C° 0 mm 1 mps 741 mmHg 79%
    01:00 +20°C° 0 mm 1 mps 741 mmHg 82%
    02:00 +20°C° 0 mm 1 mps 741 mmHg 85%
    03:00 +19°C° 0 mm 1 mps 741 mmHg 88%
    04:00 +19°C° 0 mm 1 mps 741 mmHg 91%
    05:00 +19°C° 0 mm 2 mps 741 mmHg 88%
    06:00 +21°C° 0 mm 2 mps 741 mmHg 85%
    07:00 +23°C° 0 mm 2 mps 741 mmHg 82%
    08:00 +24°C° 0 mm 2 mps 741 mmHg 77%
    09:00 +25°C° 0 mm 2 mps 741 mmHg 72%
    10:00 +27°C° 0 mm 2 mps 741 mmHg 67%
    11:00 +27°C° 0.1 mm 2 mps 741 mmHg 63%
    12:00 +28°C° 0.1 mm 2 mps 741 mmHg 59%
    13:00 +29°C° 0.1 mm 2 mps 740 mmHg 56%
    14:00 +29°C° 0.2 mm 2 mps 740 mmHg 56%
    15:00 +29°C° 0.2 mm 2 mps 740 mmHg 57%
    16:00 +29°C° 0.2 mm 2 mps 740 mmHg 57%
    17:00 +28°C° 0.3 mm 2 mps 740 mmHg 62%
    18:00 +27°C° 0.3 mm 1 mps 740 mmHg 68%
    19:00 +26°C° 0.3 mm 1 mps 740 mmHg 73%
    20:00 +25°C° 0.5 mm 1 mps 740 mmHg 75%
    21:00 +24°C° 0.5 mm 1 mps 740 mmHg 78%
    22:00 +23°C° 0.5 mm 1 mps 740 mmHg 80%
    23:00 +23°C° 0.4 mm 1 mps 740 mmHg 82%
    Show more